Chatham, MA

9:24 AM EDT on October 17, 2017 (GMT -0400)
Chatham Municipal

Weather History for KCQX - August, 2013

Change the Weather History Date:

Friday, August 30, 2013

  Actual Average Record
Temperature  
Mean Temperature 66 °F -  
Max Temperature 73 °F 72 °F 89 °F (1973)
Min Temperature 60 °F 59 °F 51 °F (2014)
Cooling Degree Days 2    
Growing Degree Days 16 (Base 50)    
Moisture  
Dew Point 62 °F    
Average Humidity 82    
Maximum Humidity 90    
Minimum Humidity 68    
Precipitation  
Precipitation 0.00 in - - ()
Sea Level Pressure  
Sea Level Pressure 29.94 in    
Wind  
Wind Speed 3 mph (SW)    
Max Wind Speed 12 mph    
Max Gust Speed 21 mph    
Visibility 10 miles    
Events      
Averages and records for this station are not official NWS values.
T = Trace of Precipitation, MM = Missing Value Source: NWS Daily Summary

Daily Weather History Graph

Daily Weather History Graph

Search for Another Location

Airport or City:

Trip Planner

Search our weather history database for the weather conditions in past years. The results will help you decide how hot, cold, wet, or windy it might be!

Date:

Astronomy

Aug. 30, 2013 Rise Set
Actual Time 6:04 AM EDT 7:16 PM EDT
Civil Twilight 5:35 AM EDT 7:44 PM EDT
Nautical Twilight 5:00 AM EDT 8:18 PM EDT
Astronomical Twilight 4:24 AM EDT 8:54 PM EDT
Moon 12:37 AM EDT (8/30) 3:31 PM EDT (8/30)
Length of Visible Light 14h 09m
Length of Day
13h 12m
Waning Crescent, 29% of the Moon is Illuminated
Aug 30
Waning Crescent
Sep 5
New
Sep 12
First Quarter
Sep 19
Full
Sep 26
Last Quarter

Hourly Weather History & Observations

Time (EDT) Temp. Dew Point Humidity Pressure Visibility Wind Dir Wind Speed Gust Speed Precip Events Conditions
12:52 AM 60.1 °F 55.9 °F 86% 30.01 in 10.0 mi Calm Calm - N/A   Clear
1:10 AM 60.8 °F 57.2 °F 88% 30.00 in 10.0 mi Calm Calm - N/A   Mostly Cloudy
1:33 AM 60.8 °F 57.2 °F 88% 30.00 in 10.0 mi Variable 3.5 mph - N/A   Mostly Cloudy
1:52 AM 61.0 °F 57.9 °F 90% 30.00 in 10.0 mi Calm Calm - N/A   Overcast
2:52 AM 63.0 °F 57.9 °F 84% 29.99 in 10.0 mi Calm Calm - N/A   Overcast
3:52 AM 63.0 °F 57.0 °F 81% 29.98 in 10.0 mi Calm Calm - N/A   Overcast
4:52 AM 63.0 °F 57.0 °F 81% 29.97 in 10.0 mi Calm Calm - N/A   Overcast
5:52 AM 63.0 °F 57.9 °F 84% 29.98 in 10.0 mi Calm Calm - N/A   Overcast
6:09 AM 62.6 °F 57.2 °F 82% 29.98 in 10.0 mi Calm Calm - N/A   Overcast
6:41 AM 62.6 °F 57.2 °F 82% 29.98 in 10.0 mi Calm Calm - N/A   Overcast
6:52 AM 63.0 °F 57.9 °F 84% 29.99 in 10.0 mi Calm Calm - N/A   Overcast
7:52 AM 64.0 °F 59.0 °F 84% 29.99 in 10.0 mi Variable 3.5 mph - N/A   Overcast
8:29 AM 64.4 °F 59.0 °F 83% 29.98 in 10.0 mi Calm Calm - N/A   Overcast
8:52 AM 64.9 °F 60.1 °F 84% 29.99 in 10.0 mi Calm Calm - N/A   Overcast
9:52 AM 68.0 °F 59.0 °F 73% 29.98 in 10.0 mi WNW 6.9 mph - N/A   Mostly Cloudy
10:21 AM 66.2 °F 59.0 °F 78% 29.98 in 10.0 mi Variable 5.8 mph - N/A   Overcast
10:52 AM 68.0 °F 59.0 °F 73% 29.98 in 10.0 mi Variable 5.8 mph - N/A   Overcast
11:52 AM 72.0 °F 61.0 °F 68% 29.96 in 10.0 mi Variable 5.8 mph - N/A   Overcast
12:52 PM 70.0 °F 62.1 °F 76% 29.94 in 10.0 mi SW 9.2 mph 17.3 mph N/A   Overcast
1:52 PM 71.1 °F 63.0 °F 75% 29.92 in 10.0 mi SW 6.9 mph - N/A   Overcast
2:52 PM 72.0 °F 64.0 °F 76% 29.90 in 10.0 mi Variable 6.9 mph 17.3 mph N/A   Overcast
3:44 PM 73.4 °F 64.4 °F 73% 29.89 in 10.0 mi WSW 10.4 mph 20.7 mph N/A   Scattered Clouds
3:52 PM 72.0 °F 64.0 °F 76% 29.89 in 10.0 mi SW 10.4 mph 18.4 mph N/A   Scattered Clouds
3:57 PM 71.6 °F 64.4 °F 78% 29.89 in 10.0 mi SW 6.9 mph 20.7 mph N/A   Mostly Cloudy
4:26 PM 73.4 °F 64.4 °F 73% 29.88 in 10.0 mi SW 11.5 mph 18.4 mph N/A   Scattered Clouds
4:52 PM 73.0 °F 64.9 °F 76% 29.89 in 10.0 mi WSW 10.4 mph 16.1 mph N/A   Clear
5:52 PM 72.0 °F 66.0 °F 81% 29.88 in 10.0 mi WSW 8.1 mph - N/A   Clear
6:52 PM 70.0 °F 66.0 °F 87% 29.89 in 9.0 mi Variable 6.9 mph - N/A   Clear
7:33 PM 69.8 °F 66.2 °F 88% 29.88 in 9.0 mi WSW 6.9 mph - N/A   Partly Cloudy
7:52 PM 69.1 °F 66.0 °F 90% 29.88 in 10.0 mi WSW 8.1 mph - N/A   Partly Cloudy
8:52 PM 69.1 °F 66.0 °F 90% 29.89 in 9.0 mi WSW 6.9 mph - N/A   Partly Cloudy
9:19 PM 69.8 °F 66.2 °F 88% 29.88 in 9.0 mi SW 4.6 mph - N/A   Mostly Cloudy
9:52 PM 69.1 °F 66.0 °F 90% 29.88 in 9.0 mi SW 6.9 mph - N/A   Mostly Cloudy
10:04 PM 69.8 °F 66.2 °F 88% 29.88 in 9.0 mi SW 5.8 mph - N/A   Scattered Clouds
10:37 PM 69.8 °F 66.2 °F 88% 29.88 in 9.0 mi SW 6.9 mph - N/A   Mostly Cloudy
10:52 PM 70.0 °F 66.9 °F 90% 29.89 in 9.0 mi SW 8.1 mph - N/A   Overcast
11:52 PM 70.0 °F 66.9 °F 90% 29.88 in 8.0 mi SW 6.9 mph - N/A   Overcast